www.pogodaiklimat.ru

Погода и климат >> Архив погоды >> Индия >> Орисса >> Чандбали


ПОГОДА в Чандбали

  • Прогноз погоды в Чандбали
  • Монитор погоды в Чандбали

АРХИВ ПОГОДЫ в Чандбали

Время (UTC), дата Ветер
(напр.,м/с)
 
Видим.   Явления Облачность Т
(С)
Тd
(С)
f
(%)
Тe
(С)
Тes
(С)
Комфортность P
(гПа)
Po
(гПа)
Тmin
(С)
Tmax
(С)
R
(мм)
R24
(мм)
S
(см)
06 17.07 Ю 1 4000 м ясно +35.0 +26.4 61 +51 +79 опасность
перегрева
1001.5 1000.8
09 17.07 Ю 1 4000 м 4/3 600 м
[Sc Ci fib]
+35.0 +25.8 59 +50 +61 опасность
перегрева
999.8 999.1
12 17.07 Ю 1 4000 м 3/1 600 м
[Sc Ci fib]
+33.4 +26.2 66 +50 +50 опасность
перегрева
998.4 997.7 +36.0
15 17.07 штиль 0 4000 м 4/1 600 м
[Sc Ac trans]
+31.6 +28.1 82 +52 +52 опасность
перегрева
1002.2 1001.5
18 17.07 штиль 0 4000 м 8/4 600 м
[Sc Ac trans]
+29.0 +26.2 85 +44 +44 опасность
перегрева
1001.8 1001.1
21 17.07 штиль 0 4000 м 6/4 600 м
[Sc Ac trans]
+28.6 +26.1 86 +43 +43 опасность
перегрева
1000.2 999.5
00 18.07 штиль 0 4000 м 5/1 600 м
[Sc Ac trans]
+27.8 +25.5 87 +41 +41 опасность
перегрева
1000.8 1000.1
03 18.07 З 1 4000 м 3/1 600 м
[Sc Ci fib]
+31.2 +27.3 80 +50 +62 опасность
перегрева
1001.4 1000.7 +26.8
06 18.07 В 2 4000 м 6/4 600 м
[Sc Ac trans]
+34.6 +25.7 60 +50 +61 опасность
перегрева
1001.7 1001.0
09 18.07 Ю 2 4000 м 5/4 600 м
[Sc Ci fib]
+34.4 +25.4 60 +49 +57 опасность
перегрева
999.8 999.1
12 18.07 В 2 4000 м 3/1 600 м
[Sc Ci fib]
+33.0 +25.1 63 +47 +47 опасность
перегрева
998.8 998.1 +35.2
15 18.07 штиль 0 4000 м 3/1 600 м
[Sc Ci fib]
+31.0 +27.1 80 +49 +49 опасность
перегрева
1001.4 1000.7
18 18.07 штиль 0 4000 м 3/0
[Ac trans Ci fib]
+30.0 +26.4 81 +46 +46 опасность
перегрева
1002.0 1001.3
21 18.07 штиль 0 4000 м 5/3 600 м
[Sc Ac trans]
+29.6 +26.8 85 +46 +46 опасность
перегрева
1000.5 999.8
00 19.07 штиль 0 4000 м в посл. час дождь 6/4 600 м
[Sc Ac trans]
+28.0 +25.7 87 +41 +42 опасность
перегрева
1001.0 1000.3 0.3
03 19.07 В 1 4000 м {дождь} 6/5 600 м
[Sc Ci fib]
+30.6 +26.4 78 +47 +53 опасность
перегрева
1001.7 1001.0 +26.8 0.5
06 19.07 Ю 1 4000 м дождь 6/5 600 м
[Sc Ci fib]
+32.8 +27.3 73 +52 +64 опасность
перегрева
1002.0 1001.3 0.8
09 19.07 Ю 3 4000 м {дождь} 6/5 600 м
[Sc Ac trans]
+33.4 +27.4 71 +53 +58 опасность
перегрева
1000.7 1000.0 0.9
12 19.07 Ю 3 4000 м {дождь} 6/4 600 м
[Sc Ac trans]
+31.8 +26.5 74 +49 +49 опасность
перегрева
1000.0 999.3 +33.7 0.9
15 19.07 Ю 2 4000 м 5/4 600 м
[Sc Ac trans]
+30.2 +27.2 84 +48 +48 опасность
перегрева
1002.5 1001.8 0.9
18 19.07 Ю 1 4000 м 1/1 600 м
[Sc]
+29.6 +27.1 86 +47 +47 опасность
перегрева
1002.9 1002.2 0.9
21 19.07 штиль 0 4000 м 3/3 600 м
[Sc]
+29.0 +26.8 88 +45 +45 опасность
перегрева
1001.3 1000.6 0.9
00 20.07 Ю 1 4000 м 3/1 600 м
[Sc Ci fib]
+28.8 +27.1 91 +46 +46 опасность
перегрева
1002.4 1001.7 0.9
03 20.07 Ю 2 4000 м 5/4 600 м
[Sc diur, vesp Ci fib]
+31.0 +27.4 81 +49 +56 опасность
перегрева
1003.8 1003.1 +27.8 0.9
06 20.07 Ю 3 4000 м 8/5 600 м
[Sc Ac trans]
+32.4 +27.5 75 +51 +58 опасность
перегрева
1003.9 1003.2
09 20.07 Ю 3 4000 м 5/4 600 м
[Sc Ac trans]
+34.0 +27.7 70 +54 +60 опасность
перегрева
1002.9 1002.2
12 20.07 Ю 3 4000 м 4/3 600 м
[Sc diur, vesp Ci fib]
+31.8 +26.5 74 +49 +49 опасность
перегрева
1001.8 1001.1 +34.4
15 20.07 Ю 2 4000 м 1/1 600 м
[Sc]
+30.4 +27.1 83 +48 +48 опасность
перегрева
1003.4 1002.7
18 20.07 Ю 1 4000 м 4/3 600 м
[Sc Ac trans]
+29.4 +26.9 86 +46 +46 опасность
перегрева
1004.5 1003.8
21 20.07 Ю 1 4000 м 5/3 600 м
[Sc Ac trans]
+28.8 +26.9 89 +45 +45 опасность
перегрева
1002.7 1002.0
00 21.07 штиль 0 4000 м 5/4 600 м
[Sc Ac trans]
+28.4 +26.4 89 +43 +44 опасность
перегрева
1003.9 1003.2
03 21.07 Ю 1 4000 м 5/4 600 м
[Sc diur, vesp Ac trans]
+31.4 +27.3 79 +50 +57 опасность
перегрева
1005.4 1004.7 +27.5
06 21.07 Ю 1 4000 м 4/1 600 м
[Sc Ac trans]
+35.0 +26.1 60 +51 +71 опасность
перегрева
1004.7 1004.0
09 21.07 Ю 2 4000 м 4/3 600 м
[Sc Ci fib]
+35.0 +27.9 67 +56 +65 опасность
перегрева
1003.1 1002.4
12 21.07 Ю 3 4000 м 1/1 600 м
[Sc]
+32.4 +26.9 73 +50 +51 опасность
перегрева
1001.7 1001.0 +36.2
15 21.07 Ю 1 4000 м 1/1 600 м
[Sc]
+30.6 +27.0 81 +48 +48 опасность
перегрева
1004.0 1003.3
18 21.07 Ю 1 4000 м 3/3 600 м
[Sc]
+29.8 +27.3 86 +47 +47 опасность
перегрева
1004.4 1003.7
21 21.07 штиль 0 4000 м 4/3 600 м
[Sc Ac trans]
+29.4 +27.5 90 +48 +48 опасность
перегрева
1003.6 1002.9
00 22.07 штиль 0 4000 м 5/4 600 м
[Sc Ac trans]
+28.4 +26.7 91 +44 +44 опасность
перегрева
1003.4 1002.7
03 22.07 Ю 1 4000 м 6/4 600 м
[Sc Ac trans]
+30.8 +26.2 77 +47 +53 опасность
перегрева
1004.7 1004.0 +27.4
06 22.07 Ю 1 4000 м 5/4 600 м
[Sc Ci fib]
+35.0 +26.7 62 +52 +67 опасность
перегрева
1004.1 1003.4
09 22.07 Ю 3 4000 м гроза, ливневой дождь 9/5 300 м
[Cb cap Ac trans]
+31.4 +28.1 83 +52 +55 опасность
перегрева
1002.6 1001.9 0.9
12 22.07 Ю 2 4000 м {гроза, дождь} 4/3 600 м
[Sc Ci fib]
+31.8 +28.0 80 +52 +52 опасность
перегрева
1001.8 1001.1 +36.2 0.9
15 22.07 ЮЗ 1 4000 м 1/0
[Ac trans]
+30.2 +27.2 84 +48 +48 опасность
перегрева
1003.8 1003.1 0.9
18 22.07 Ю 1 4000 м 4/0
[Ac trans Ci fib]
+29.8 +27.9 90 +49 +49 опасность
перегрева
1003.2 1002.5 0.9
21 22.07 штиль 0 4000 м 4/1 600 м
[Sc Ac trans]
+29.4 +27.8 91 +48 +48 опасность
перегрева
1003.0 1002.3 0.9
00 23.07 штиль 0 4000 м 6/1 600 м
[Sc Ac trans]
+28.4 +26.4 89 +43 +44 опасность
перегрева
1003.3 1002.6 0.9
03 23.07 Ю 1 4000 м 6/3 600 м
[Sc Ac trans Ci fib]
+31.0 +26.3 76 +47 +55 опасность
перегрева
1003.9 1003.2 +27.4 0.9
06 23.07 Ю 1 4000 м 6/3 600 м
[Sc Ac trans Ci fib]
+35.0 +26.4 61 +51 +66 опасность
перегрева
1003.1 1002.4
09 23.07 Ю 3 4000 м 6/4 600 м
[Sc Ac trans Ci fib]
+35.0 +26.4 61 +51 +57 опасность
перегрева
1001.5 1000.8
12 23.07 Ю 3 4000 м 4/3 600 м
[Sc Ci fib]
+32.4 +26.3 70 +49 +49 опасность
перегрева
1000.3 999.6 +35.9
15 23.07 Ю 1 4000 м 4/3 600 м
[Sc Ci fib]
+30.2 +26.0 78 +45 +45 опасность
перегрева
1003.6 1002.9
18 23.07 штиль 0 4000 м 4/3 600 м
[Sc Ci fib]
+29.2 +26.4 85 +45 +45 опасность
перегрева
1003.4 1002.7
21 23.07 штиль 0 4000 м 4/3 600 м
[Sc Ci fib]
+28.6 +26.6 89 +44 +44 опасность
перегрева
1003.1 1002.4
00 24.07 штиль 0 4000 м 4/3 600 м
[Sc Ci fib]
+28.0 +26.3 91 +43 +43 опасность
перегрева
1002.0 1001.3
03 24.07 ЮЗ 1 4000 м 8/5 600 м
[Sc diur, vesp Ac trans]
+30.6 +27.0 81 +48 +52 опасность
перегрева
1003.4 1002.7 +27.0

 

Местоположение метеостанции Чандбали (Орисса, Индия): широта 20.78 долгота 86.73 высота над уровнем моря 6 м.

В архиве по умолчанию представлена погода в Чандбали за последнюю неделю. Архивные данные за месяц целиком и за предыдущие месяцы, начиная с января 2011 года, Вы можете получить, выбрав интересующий диапазон дат из раскрывающегося списка и нажав кнопку "Ввод!".


*Определитесь, кто Вы:
робот инопланетянин человек

Внимание! Время в таблицах - всемирное. Для получения местного времени необходимо прибавить поправку, которая равна 5.5 ч.

Смотрите также архив погоды в соседних городах и на ближайших метеорологических станциях:

Погода в Парадипе (Орисса, Индия) (54 км)
Погода в Баласоре (Орисса, Индия) (85 км)
Погода в Каттаке (Орисса, Индия) (90 км)
Погода в Бхубанешваре (Орисса, Индия) (111 км)
Погода в Диге (Западная Бенгалия, Индия) (123 км)
Погода в Барипаде (Орисса, Индия) (128 км)
Погода в Пури (Орисса, Индия) (145 км)
Погода в Контае (Западная Бенгалия, Индия) (153 км)
Погода в Кендуджхаре (Орисса, Индия) (156 км)
Погода в Ангуле (Орисса, Индия) (170 км)

Пояснения к столбцам:

Ветер - указаны скорость ветра в м/с - средняя за 10 мин, порывы в срок и между сроками (в фигурных скобках) и направление, откуда дует ветер: С - северный, СВ - северо-восточный, В - восточный, ЮВ - юго-восточный, Ю - южный, ЮЗ - юго-западный, З - западный, СЗ - северо-западный.
Видимость - горизонтальная дальность видимости в метрах или километрах. При видимости от 1 до 10 км при отсутствии осадков обычно наблюдается дымка, при ухудшении видимости до 1 км и менее - туман. В сухую погоду видимость может ухудшаться дымом, пылью или мглою.
Явления - указаны атмосферные явления, наблюдавшиеся в срок или в последний час перед сроком; фигурными скобками обозначены явления, наблюдавшиеся между сроками (за 1-3 часа до срока); квадратными скобками обозначены град или гололедные отложения с указанием их диаметра в мм.
Облачность - указаны через наклонную черту общая и нижняя облачность в баллах и высота нижней границы облаков в метрах; квадратными скобками обозначены формы облаков: Ci - перистые, Cs - перисто-слоистые, Cc - перисто-кучевые, Ac - высококучевые, As - высокослоистые, Sc - слоисто-кучевые, Ns - слоисто-дождевые, Cu - кучевые, Cb - кучево-дождевые. Подробнее классификацию облаков см. в Атласе облаков (PDF).
T - Температура воздуха - температура, измеренная на высоте 2 м над землей.
Td - Температура точки росы - температура, при понижении до которой содержащийся в воздухе водяной пар достигнет насыщения.
f - Относительная влажность воздуха - влажноcть воздуха, измеренная на высоте 2 м над землей.
Te - Эффективная температура - температура, которую ощущает одетый по сезону человек в тени. Характеристика душности погоды. При расчете учитывается влияние влажности воздуха и скорости ветра на теплоощущения человека.
Tes - Эффективная температура на солнце - температура, которую ощущает человек, с поправкой на солнечный нагрев. Характеристика знойности погоды. Зависит от высоты солнца над горизонтом, облачности и скорости ветра. Ночью, в пасмурную погоду, а также при ветре 12 м/с и более поправка равна нулю.
P - Атмосферное давление - приведенное к уровню моря атмосферное давление.
Po - Атмосферное давление - измеренное на уровне метеостанции атмосферное давление.
Tmin - Минимальная температура - минимум температуры воздуха на высоте 2 м над землей.
Tmax - Максимальная температура - максимум температуры воздуха на высоте 2 м над землей.
R - Количество осадков - Количество выпавших осадков за период времени, мм. При наведении курсора мыши на число - период времени, за который выпало указанное количество осадков.
R24 - Количество осадков - Количество выпавших осадков за 24 часа, мм.
S - Снежный покров - Высота снежного покрова, см. При наведении курсора мыши на число - состояние снежного покрова и степень покрытия местности в баллах.